Location: Blankensee
(53.5126°N, 14.3055°E)
Time: 19:00:12
(UTC+00:00)

ATLAS 3B R/B - Pass Details

Date: 08 August 2020
Orbit: 1016 x 1179 km, 63.8° (Epoch: 17 September)

Event Time Altitude Azimuth Distance (km) Brightness Sun altitude
Exits shadow 00:54:45 - 260° (W) 3,091 4.8 -16.8°
Reaches altitude 10° 00:55:35 10° 262° (W) 2,806 4.6 -16.7°
Maximum altitude 01:01:54 47° 335° (NNW) 1,348 3.5 -16.3°
Drops below altitude 10° 01:08:24 10° 49° (NE) 2,876 6.1 -15.8°
Sets 01:11:13 0° 55° (NE) 3,854 6.9 -15.6°
